Regional Weather Roundup
Issued by NWS Kansas City/Pleasant Hill, MO

Home | Current Version | Previous Version | Text Only | Print | Product List | Glossary On
Versions: 1 2 3 4 5 6 7 8 9 10 11 12 13 14 15 16 17 18 19 20 21 22 23 24 25 26 27 28 29 30 31 32 33 34 35 36 37 38 39 40 41 42 43 44 45 46 47 48 49 50
554
ASUS43 KEAX 210010
RWREAX

WEATHER ROUNDUP FOR EASTERN KANSAS AND NORTHWEST MISSOURI
NATIONAL WEATHER SERVICE KANSAS CITY/PLEASANT HILL MO
700 PM CDT TUE AUG 20 2019

KSZ040-057-103>105-MOZ028-029-037-043-210100-
...KANSAS CITY METROPOLITAN AREA...

CITY           SKY/WX    TMP DP  RH WIND       PRES   REMARKS
K.C. INTL      MOSUNNY   88  75  65 S7        29.93R HX  97
6HR MIN TEMP:  87; 6HR MAX TEMP:  92;

K.C. DOWNTOWN  SUNNY     93  73  52 S14       29.91R HX 102
6HR MIN TEMP:  92; 6HR MAX TEMP:  95;

LEES SUMMIT    SUNNY     90  75  61 S16G24    29.93F HX 100
6HR MIN TEMP:  85; 6HR MAX TEMP:  93;

OLATHE - IXD   SUNNY     88  77  69 S14       29.94F HX 100
6HR MIN TEMP:  88; 6HR MAX TEMP:  92;

OLATHE - OJC   SUNNY     87  77  72 S13       29.94F HX  99
6HR MIN TEMP:  85; 6HR MAX TEMP:  91;

LAWRENCE       SUNNY     91  77  63 S12       29.91F HX 104

$$

MOZ001>008-011>017-020>025-030>033-038>040-044>046-053-054-210100-
...NORTHERN AND CENTRAL MISSOURI...

CITY           SKY/WX    TMP DP  RH WIND       PRES   REMARKS
ST. JOSEPH     SUNNY     91  75  59 E3        29.92R HX 101
6HR MIN TEMP:  75; 6HR MAX TEMP:  92; 6HR PCP: TRACE;

MOSBY          CLEAR     90  68  48 CALM      29.92R HX  93
WARRENSBURG    SUNNY     88  75  66 S10G16    29.91S HX  97
WHITEMAN AFB   MOSUNNY   90  79  69 SW15G22   29.88R HX 105
6HR MIN TEMP:  85; 6HR MAX TEMP:  92;

CLINTON        SUNNY     90  79  70 SW6       29.94F HX 105
SEDALIA        SUNNY     87  75  67 E5        29.95R HX  96
6HR MIN TEMP:  85; 6HR MAX TEMP:  92;

WARSAW         NOT AVBL
CHILLICOTHE      N/A     85  74  69 N6        29.94R HX  92
6HR MIN TEMP:  71; 6HR MAX TEMP:  87; 6HR PCP:  0.02;

KIRKSVILLE     SUNNY     80  72  76 S6        29.95S
6HR MIN TEMP:  73; 6HR MAX TEMP:  84;


$$

MOZ041-047>049-056>058-063>065-088>090-097-210100-
...EASTERN AND SOUTHERN MISSOURI...

CITY           SKY/WX    TMP DP  RH WIND       PRES   REMARKS
ST. LOUIS INTL MOCLDY    77  67  71 SE6       29.97F
6HR MIN TEMP:  74; 6HR MAX TEMP:  79; 6HR PCP:  0.07;

SPIRIT OF STL  CLOUDY    76  71  85 CALM      29.97F
COLUMBIA       SUNNY     83  74  74 S15G24    29.95S
JEFFERSON CITY CLEAR     82  70  66 S6        29.95S
ROLLA          CLEAR     73  67  81 S12       30.01R
OSAGE BEACH    SUNNY     78  71  79 S9        29.98R
SPRINGFIELD    MOSUNNY   80  68  66 S13       30.03F
BRANSON        PTSUNNY   73  72  94 NE6       30.09R
JOPLIN         SUNNY     90  77  65 S6        29.99S HX 103
WEST PLAINS    PTCLDY    73  69  87 SE5       30.08F

$$

IAZ060-094-KSZ022-034>040-054-083-096-NEZ052-066-093-210100-
...KANSAS...SOUTHEAST NEBRASKA AND IOWA...

CITY           SKY/WX    TMP DP  RH WIND       PRES   REMARKS
TOPEKA         SUNNY     90  78  68 S14G22    29.90F HX 104
6HR MIN TEMP:  87; 6HR MAX TEMP:  92;

MANHATTAN      SUNNY     93  79  63 SE7       29.89F HX 110
EMPORIA        SUNNY     90  77  65 S13G20    29.93F HX 103
CHANUTE        SUNNY     92  77  61 S9        29.96F HX 105
WICHITA        MOSUNNY   96  70  42 SE15      29.91R HX 102
OMAHA          PTSUNNY   90  80  72 NE8       29.91F HX 107
LINCOLN        SUNNY     91  74  57 SE9       29.93F HX 100
FALLS CITY     SUNNY     89  76  65 S7        29.92S HX 100
LAMONI         SUNNY     87  77  72 CALM      29.94R HX  99
DES MOINES     PTSUNNY   86  73  65 N6        29.91S HX  93

$$





USA.gov is the U.S. government's official web portal to all federal, state and local government web resources and services.